Regional Weather Roundup
Issued by NWS Little Rock, AR

Home | Current Version | Previous Version | Graphics & Text | Print | Product List | Glossary On
Versions: 1 2 3 4 5 6 7 8 9 10 11 12 13 14 15 16 17 18 19 20 21 22 23 24 25
614
ASUS44 KLZK 220805
RWRLZK

WEATHER ROUNDUP FOR ARKANSAS
NATIONAL WEATHER SERVICE LITTLE ROCK AR
300 AM CDT FRI MAY 22 2015

NOTE: "FAIR" INDICATES FEW OR NO CLOUDS BELOW 12,000 FEET WITH NO
SIGNIFICANT WEATHER AND/OR OBSTRUCTIONS TO VISIBILITY.

ARZ001-003-010-029-220900-
NORTHWEST ARKANSAS

CITY           SKY/WX    TMP DP  RH WIND       PRES   REMARKS
FAYETTEVILLE   CLEAR     44  44 100 S3        30.21S
FORT SMITH     MOCLDY    56  51  84 E5        30.19S
HARRISON       CLEAR     44  43  96 CALM      30.22S
BENTONVILLE    CLEAR    N/A N/A N/A CALM      30.21S
ROGERS         MOCLDY    45  44  97 E3        30.22F
SILOAM SPGS    CLEAR     48  41  76 E3        30.21F
$$

ARZ004-005-016-220900-
NORTH CENTRAL ARKANSAS

CITY           SKY/WX    TMP DP  RH WIND       PRES   REMARKS
BATESVILLE     CLEAR     48  46  93 CALM      30.22F
FLIPPIN        CLEAR     46  45  93 CALM      30.21S
MTN HOME       CLEAR     48  46  93 E3        30.21F
$$

ARZ040-041-220900-
WEST CENTRAL ARKANSAS

CITY           SKY/WX    TMP DP  RH WIND       PRES   REMARKS
MENA           CLOUDY    52  50  93 CALM      30.19F
MOUNT IDA      PTCLDY    50  48  93 CALM      30.18S
$$

ARZ009-017-025-026-028-220900-
NORTHEAST ARKANSAS

CITY           SKY/WX    TMP DP  RH WIND       PRES   REMARKS
CORNING          N/A     50  50 100 N5        30.23F
JONESBORO      CLEAR     47  45  93 NE3       30.22S
NEWPORT        CLEAR     51  49  93 CALM      30.23F
WALNUT RIDGE   CLEAR     50  45  81 NW5       30.22F
BLYTHEVILLE    CLEAR     47  46  97 N3        30.23S
$$

ARZ022-023-033-042-044-220900-
CENTRAL ARKANSAS

CITY           SKY/WX    TMP DP  RH WIND       PRES   REMARKS
LITTLE ROCK    CLEAR     53  48  83 CALM      30.23R
N LITTLE ROCK    N/A     51  51  99 SE3       30.23R
JACKSONVILLE   CLEAR     50  49  97 CALM      30.23R
HOT SPRINGS    PTCLDY    52  49  89 E5        30.21S
RUSSELLVILLE   PTCLDY    53  50  89 E5        30.22R
CLINTON        FAIR      46  46 100 CALM      30.24S
$$

ARZ036-220900-
EAST ARKANSAS

CITY           SKY/WX    TMP DP  RH WIND       PRES   REMARKS
WEST MEMPHIS   CLEAR     48  47  96 N3        30.21S
$$

ARZ050-053-066-070-073-220900-
SOUTHWEST ARKANSAS

CITY           SKY/WX    TMP DP  RH WIND       PRES   REMARKS
ARKADELPHIA    FAIR      54  54 100 CALM      30.23R
CAMDEN         CLEAR     48  46  93 CALM      30.21S
TEXARKANA      CLEAR     54  53  97 CALM      30.19S
EL DORADO      CLEAR     51  49  92 NE5       30.19F
DE QUEEN       CLOUDY    55  53  93 E5        30.18S
$$

ARZ056-057-069-220900-
SOUTHEAST ARKANSAS

CITY           SKY/WX    TMP DP  RH WIND       PRES   REMARKS
PINE BLUFF     CLEAR     49  48  97 CALM      30.22S
STUTTGART      CLEAR     52  46  82 SE3       30.23R
MONTICELLO     CLEAR     48  47  96 CALM      30.21S

$$





USA.gov is the U.S. government's official web portal to all federal, state and local government web resources and services.